Change the Weather History Date:

Tuesday, March 4, 2014

  Actual Average Record
Temperature  
Mean Temperature 22 °F 39 °F  
Max Temperature 34 °F 48 °F 80 °F (1976)
Min Temperature 9 °F 30 °F 1 °F (1873)
Degree Days  
Heating Degree Days 43 26  
Month to date heating degree days 151 105  
Since 1 July heating degree days 4395 3932  
Cooling Degree Days 0 0  
Month to date cooling degree days 0 0  
Year to date cooling degree days 0 0  
Moisture  
Dew Point 11 °F    
Average Humidity 69    
Maximum Humidity 84    
Minimum Humidity 53    
Precipitation  
Precipitation 0.00 in 0.11 in 3.67 in (1964)
Month to date precipitation 0.57 0.42  
Year to date precipitation 6.11 6.23  
Snow  
Snow 0.00 in 0.10 in 5.40 in (1922)
Month to date snowfall 2.2 0.5  
Since 1 July snowfall 45.8 19.1  
Snow Depth 1.00 in    
Sea Level Pressure  
Sea Level Pressure 30.29 in    
Wind  
Wind Speed 3 mph (East)    
Max Wind Speed 10 mph    
Max Gust Speed 14 mph    
Visibility 10 miles    
Events      
T = Trace of Precipitation, MM = Missing Value Source: NWS Daily Summary

Daily Weather History Graph

Daily Weather History Graph

Search for Another Location

Airport or City:

Trip Planner

Search our weather history database for the weather conditions in past years. The results will help you decide how hot, cold, wet, or windy it might be!

Date:

Astronomy

Mar. 04, 2014 Rise Set
Actual Time 7:06 AM EST 6:34 PM EST
Civil Twilight 6:40 AM EST 7:01 PM EST
Nautical Twilight 6:09 AM EST 7:32 PM EST
Astronomical Twilight 5:38 AM EST 8:03 PM EST
Moon 8:54 AM EST (3/4) 10:38 PM EST (3/4)
Length of Visible Light 12h 21m
Length of Day
11h 27m
Waxing Crescent, 14% of the Moon is Illuminated
Mar 4
Waxing Crescent
Mar 8
First Quarter
Mar 16
Full
Mar 23
Last Quarter
Mar 30
New

Hourly Weather History & Observations

Time (EST) Temp. Windchill Dew Point Humidity Pressure Visibility Wind Dir Wind Speed Gust Speed Precip Events Conditions
12:52 AM 10.9 °F 4.7 °F 3.9 °F 73% 30.38 in 10.0 mi NE 3.5 mph - N/A   Overcast
1:52 AM 12.0 °F 4.1 °F 3.9 °F 70% 30.37 in 10.0 mi East 4.6 mph - N/A   Overcast
2:52 AM 12.0 °F 5.9 °F 3.9 °F 70% 30.38 in 10.0 mi North 3.5 mph - N/A   Overcast
3:52 AM 9.0 °F -2.2 °F 3.9 °F 80% 30.37 in 10.0 mi North 6.9 mph - N/A   Overcast
4:52 AM 10.9 °F -0.8 °F 3.9 °F 73% 30.36 in 10.0 mi NE 8.1 mph - N/A   Overcast
5:52 AM 10.0 °F -2.9 °F 3.9 °F 76% 30.33 in 10.0 mi ESE 9.2 mph - N/A   Overcast
6:52 AM 10.9 °F 2.9 °F 3.0 °F 70% 30.35 in 10.0 mi NE 4.6 mph - N/A   Mostly Cloudy
7:52 AM 10.0 °F 1.8 °F 3.9 °F 76% 30.36 in 9.0 mi East 4.6 mph - N/A   Partly Cloudy
8:52 AM 14.0 °F 8.2 °F 6.1 °F 71% 30.35 in 9.0 mi East 3.5 mph - N/A   Clear
9:52 AM 17.1 °F 11.7 °F 8.1 °F 68% 30.34 in 10.0 mi East 3.5 mph - N/A   Partly Cloudy
10:52 AM 21.0 °F - 10.0 °F 63% 30.33 in 10.0 mi Calm Calm - N/A   Partly Cloudy
11:52 AM 24.1 °F 19.7 °F 12.9 °F 62% 30.30 in 10.0 mi East 3.5 mph - N/A   Scattered Clouds
12:52 PM 25.0 °F 19.3 °F 15.1 °F 66% 30.27 in 10.0 mi SSE 4.6 mph - N/A   Partly Cloudy
1:52 PM 27.0 °F 20.5 °F 15.1 °F 61% 30.24 in 10.0 mi South 5.8 mph - N/A   Partly Cloudy
2:52 PM 28.0 °F 22.8 °F 16.0 °F 61% 30.21 in 10.0 mi South 4.6 mph - N/A   Partly Cloudy
3:52 PM 30.0 °F 26.5 °F 16.0 °F 56% 30.21 in 10.0 mi South 3.5 mph - N/A   Partly Cloudy
4:52 PM 30.9 °F - 18.0 °F 59% 30.20 in 10.0 mi Calm Calm - N/A   Partly Cloudy
5:52 PM 30.9 °F 26.2 °F 19.0 °F 61% 30.21 in 10.0 mi West 4.6 mph - N/A   Scattered Clouds
6:52 PM 28.9 °F - 18.0 °F 64% 30.22 in 10.0 mi Calm Calm - N/A   Scattered Clouds
7:52 PM 27.0 °F - 19.9 °F 75% 30.22 in 10.0 mi Calm Calm - N/A   Scattered Clouds
8:52 PM 26.1 °F - 19.0 °F 75% 30.22 in 10.0 mi Calm Calm - N/A   Mostly Cloudy
9:52 PM 21.9 °F - 18.0 °F 85% 30.23 in 10.0 mi Calm Calm - N/A   Mostly Cloudy
10:52 PM 21.0 °F - 18.0 °F 88% 30.23 in 8.0 mi Calm Calm - N/A   Mostly Cloudy
11:52 PM 23.0 °F - 17.1 °F 78% 30.21 in 10.0 mi Calm Calm - N/A   Mostly Cloudy